This is the latest recevied weather packets stored in our database for station/object K2ATL. If no packets are shown the sender has not sent any weather packets the latest 10 day(s).
| Time | Temp. | Humidity | Pressure | Rain* | Wind** | Luminosity | Snow |
|---|---|---|---|---|---|---|---|
| 1777550552 | 11.11° C | 97% | 1094.9 hPa | 0 mm | - | 45 W/m² | - |
| 1777550248 | 11.11° C | 97% | 1094.8 hPa | 0 mm | - | 41 W/m² | - |
| 1777549945 | 11.67° C | 98% | 1094.8 hPa | 0 mm | - | 38 W/m² | - |
| 1777549641 | 11.67° C | 97% | 1094.7 hPa | 0 mm | - | 34 W/m² | - |
| 1777549336 | 11.67° C | 97% | 1094.7 hPa | 0 mm | - | 28 W/m² | - |
| 1777549035 | 11.67° C | 97% | 1094.7 hPa | 0 mm | - | 29 W/m² | - |
| 1777548730 | 11.67° C | 96% | 1094.7 hPa | 0 mm | - | 29 W/m² | - |
| 1777548428 | 11.67° C | 96% | 1094.5 hPa | 0 mm | - | 18 W/m² | - |
| 1777548124 | 11.67° C | 97% | 1094.5 hPa | 0 mm | - | 11 W/m² | - |
| 1777547820 | 11.67° C | 98% | 1094.5 hPa | 0 mm | - | 8 W/m² | - |
| 1777547516 | 11.67° C | 98% | 1094.8 hPa | 0 mm | - | 6 W/m² | - |
| 1777547214 | 11.67° C | 98% | 1094.6 hPa | 0 mm | - | 3 W/m² | - |
| 1777546911 | 11.67° C | 98% | 1094.7 hPa | 0 mm | - | 2 W/m² | - |
| 1777546608 | 12.22° C | 97% | 1095 hPa | 0 mm | - | 1 W/m² | - |
| 1777546304 | 11.67° C | 97% | 1095.3 hPa | 0 mm | - | 1 W/m² | - |
| 1777546002 | 11.67° C | 96% | 1095.4 hPa | 0 mm | - | 0 W/m² | - |
| 1777545698 | 12.22° C | 96% | 1095 hPa | 0 mm | - | 0 W/m² | - |
| 1777545395 | 12.22° C | 96% | 1095.3 hPa | 0 mm | - | 0 W/m² | - |
| 1777545092 | 12.22° C | 96% | 1095.4 hPa | 0 mm | - | 0 W/m² | - |
| 1777544789 | 12.22° C | 96% | 1095.3 hPa | 0 mm | - | 0 W/m² | - |
| 1777544485 | 12.22° C | 96% | 1094.8 hPa | 0 mm | - | 0 W/m² | - |
| 1777544181 | 12.22° C | 96% | 1095.2 hPa | 0 mm | - | 0 W/m² | - |
| 1777543879 | 12.22° C | 95% | 1095.4 hPa | 1.78 mm | - | 0 W/m² | - |
| 1777543575 | 12.22° C | 96% | 1094.9 hPa | 0 mm | - | 0 W/m² | - |
| 1777543271 | 12.78° C | 95% | 1095.5 hPa | 0 mm | - | 0 W/m² | - |
* Rain latest hour (hover to see other rain measurements)
** Current wind speed in m/s (hover to see current wind gust speed)